TimeCST,TemperatureF,Dew PointF,Humidity,Sea Level PressureIn,VisibilityMPH,Wind Direction,Wind SpeedMPH,Gust SpeedMPH,PrecipitationIn,Events,Conditions,WindDirDegrees,DateUTC
12:15 AM,39.9,35.2,83,30.32,10.0,Calm,Calm,-,N/A,,Clear,0,2012-11-18 06:15:00
12:35 AM,39.7,35.1,83,30.31,10.0,Calm,Calm,-,N/A,,Clear,0,2012-11-18 06:35:00
12:55 AM,39.2,35.1,85,30.31,10.0,Calm,Calm,-,N/A,,Clear,0,2012-11-18 06:55:00
1:15 AM,38.1,34.7,87,30.30,10.0,Calm,Calm,-,N/A,,Clear,0,2012-11-18 07:15:00
1:35 AM,37.8,35.1,90,30.30,10.0,Calm,Calm,-,N/A,,Clear,0,2012-11-18 07:35:00
1:55 AM,38.1,35.2,89,30.30,10.0,Calm,Calm,-,N/A,,Clear,0,2012-11-18 07:55:00
2:15 AM,37.9,34.9,89,30.30,10.0,Calm,Calm,-,N/A,,Clear,0,2012-11-18 08:15:00
2:35 AM,38.3,34.9,87,30.30,10.0,Calm,Calm,-,N/A,,Clear,0,2012-11-18 08:35:00
2:55 AM,37.4,34.5,89,30.31,10.0,Calm,Calm,-,N/A,,Clear,0,2012-11-18 08:55:00
3:15 AM,37.2,34.5,90,30.30,10.0,Calm,Calm,-,N/A,,Clear,0,2012-11-18 09:15:00
3:35 AM,37.0,34.0,89,30.30,10.0,Calm,Calm,-,N/A,,Clear,0,2012-11-18 09:35:00
3:55 AM,36.0,33.4,91,30.29,10.0,Calm,Calm,-,N/A,,Clear,0,2012-11-18 09:55:00
4:15 AM,35.8,33.8,92,30.29,10.0,Calm,Calm,-,N/A,,Clear,0,2012-11-18 10:15:00
4:35 AM,36.0,34.3,94,30.29,10.0,Calm,Calm,-,N/A,,Clear,0,2012-11-18 10:35:00
4:55 AM,36.5,34.5,93,30.29,10.0,Calm,Calm,-,N/A,,Clear,0,2012-11-18 10:55:00
5:15 AM,36.5,34.7,93,30.29,10.0,Calm,Calm,-,N/A,,Clear,0,2012-11-18 11:15:00
5:35 AM,36.5,34.0,91,30.29,10.0,Calm,Calm,-,N/A,,Clear,0,2012-11-18 11:35:00
5:55 AM,36.7,33.8,89,30.30,10.0,Calm,Calm,-,N/A,,Clear,0,2012-11-18 11:55:00
6:15 AM,36.1,33.8,91,30.29,10.0,Calm,Calm,-,N/A,,Clear,0,2012-11-18 12:15:00
6:35 AM,35.4,32.9,91,30.29,10.0,Calm,Calm,-,N/A,,Clear,0,2012-11-18 12:35:00
6:55 AM,35.6,32.9,90,30.31,10.0,Calm,Calm,-,N/A,,Clear,0,2012-11-18 12:55:00
7:15 AM,35.6,33.1,91,30.31,10.0,Calm,Calm,-,N/A,,Clear,0,2012-11-18 13:15:00
7:35 AM,36.3,33.6,90,30.32,10.0,Calm,Calm,-,N/A,,Clear,0,2012-11-18 13:35:00
7:55 AM,38.3,35.4,89,30.32,10.0,ESE,3.5,-,N/A,,Clear,110,2012-11-18 13:55:00
8:15 AM,41.7,36.7,82,30.32,10.0,Calm,Calm,-,N/A,,Clear,0,2012-11-18 14:15:00
8:35 AM,45.7,37.6,73,30.32,10.0,Calm,Calm,-,N/A,,Clear,0,2012-11-18 14:35:00
8:55 AM,49.3,38.7,67,30.32,10.0,SSE,4.6,-,N/A,,Clear,150,2012-11-18 14:55:00
9:15 AM,52.2,38.1,59,30.33,10.0,SSE,5.8,-,N/A,,Clear,160,2012-11-18 15:15:00
9:35 AM,54.1,38.7,56,30.32,10.0,South,4.6,-,N/A,,Clear,170,2012-11-18 15:35:00
9:55 AM,55.9,38.5,52,30.32,10.0,SSE,6.9,-,N/A,,Clear,160,2012-11-18 15:55:00
10:15 AM,57.9,38.1,48,30.32,10.0,SSE,8.1,-,N/A,,Clear,160,2012-11-18 16:15:00
10:35 AM,60.3,36.3,41,30.32,10.0,SSE,8.1,-,N/A,,Clear,150,2012-11-18 16:35:00
10:55 AM,62.1,35.4,37,30.32,10.0,SSE,6.9,-,N/A,,Clear,160,2012-11-18 16:55:00
11:15 AM,63.1,35.2,35,30.32,10.0,South,6.9,-,N/A,,Clear,180,2012-11-18 17:15:00
11:35 AM,64.0,34.5,33,30.30,10.0,South,6.9,-,N/A,,Clear,170,2012-11-18 17:35:00
11:55 AM,64.6,34.5,33,30.30,10.0,SSE,8.1,-,N/A,,Clear,160,2012-11-18 17:55:00
12:15 PM,65.5,35.1,32,30.29,10.0,SSW,4.6,-,N/A,,Clear,200,2012-11-18 18:15:00
12:35 PM,66.2,34.9,31,30.27,10.0,SSE,6.9,-,N/A,,Clear,160,2012-11-18 18:35:00
12:55 PM,66.9,34.2,30,30.26,10.0,SSE,5.8,-,N/A,,Clear,160,2012-11-18 18:55:00
1:15 PM,67.1,34.3,30,30.25,10.0,SSW,4.6,-,N/A,,Clear,200,2012-11-18 19:15:00
1:35 PM,67.6,34.3,29,30.24,10.0,South,6.9,-,N/A,,Clear,190,2012-11-18 19:35:00
2:15 PM,68.4,34.5,29,30.22,10.0,South,3.5,-,N/A,,Clear,170,2012-11-18 20:15:00
2:35 PM,68.5,35.2,29,30.22,10.0,Calm,Calm,-,N/A,,Clear,0,2012-11-18 20:35:00
2:55 PM,68.9,34.0,28,30.21,10.0,South,6.9,-,N/A,,Clear,180,2012-11-18 20:55:00
3:15 PM,69.1,34.0,27,30.21,10.0,South,9.2,-,N/A,,Clear,170,2012-11-18 21:15:00
3:35 PM,69.3,34.3,28,30.20,10.0,SSE,6.9,-,N/A,,Clear,150,2012-11-18 21:35:00
3:55 PM,69.1,33.6,27,30.21,10.0,SSE,6.9,-,N/A,,Clear,150,2012-11-18 21:55:00
4:15 PM,68.5,33.8,28,30.21,10.0,SSE,8.1,-,N/A,,Clear,150,2012-11-18 22:15:00
4:35 PM,67.8,34.3,29,30.22,10.0,SSE,3.5,-,N/A,,Clear,150,2012-11-18 22:35:00
4:55 PM,66.4,35.2,32,30.22,10.0,SSE,4.6,-,N/A,,Clear,150,2012-11-18 22:55:00
5:15 PM,64.8,35.2,33,30.22,10.0,Calm,Calm,-,N/A,,Clear,0,2012-11-18 23:15:00
5:35 PM,62.1,35.8,38,30.22,10.0,Calm,Calm,-,N/A,,Clear,0,2012-11-18 23:35:00
5:55 PM,59.0,36.3,43,30.22,10.0,Calm,Calm,-,N/A,,Clear,0,2012-11-18 23:55:00
6:15 PM,55.9,37.2,49,30.22,10.0,SE,4.6,-,N/A,,Clear,140,2012-11-19 00:15:00
6:35 PM,55.6,36.7,49,30.22,10.0,Calm,Calm,-,N/A,,Clear,0,2012-11-19 00:35:00
6:55 PM,54.0,36.9,52,30.24,10.0,Calm,Calm,-,N/A,,Clear,0,2012-11-19 00:55:00
7:15 PM,52.7,37.9,57,30.24,10.0,Calm,Calm,-,N/A,,Clear,0,2012-11-19 01:15:00
7:35 PM,52.0,37.9,59,30.24,10.0,Calm,Calm,-,N/A,,Clear,0,2012-11-19 01:35:00
8:15 PM,49.1,39.4,69,30.25,10.0,Calm,Calm,-,N/A,,Clear,0,2012-11-19 02:15:00
8:35 PM,48.6,39.7,72,30.25,10.0,Calm,Calm,-,N/A,,Clear,0,2012-11-19 02:35:00
8:55 PM,48.7,39.0,69,30.26,10.0,Calm,Calm,-,N/A,,Clear,0,2012-11-19 02:55:00
9:15 PM,50.4,39.2,66,30.25,10.0,Calm,Calm,-,N/A,,Clear,0,2012-11-19 03:15:00
9:35 PM,51.4,40.8,67,30.25,10.0,Calm,Calm,-,N/A,,Clear,0,2012-11-19 03:35:00
9:55 PM,51.8,39.6,63,30.25,10.0,Calm,Calm,-,N/A,,Clear,0,2012-11-19 03:55:00
10:15 PM,50.9,40.8,68,30.25,10.0,Calm,Calm,-,N/A,,Clear,0,2012-11-19 04:15:00
10:35 PM,49.8,39.0,66,30.24,10.0,SE,3.5,-,N/A,,Clear,130,2012-11-19 04:35:00
11:15 PM,49.1,39.4,69,30.24,10.0,ESE,3.5,-,N/A,,Clear,110,2012-11-19 05:15:00
11:35 PM,51.3,37.6,60,30.24,10.0,SE,3.5,-,N/A,,Clear,140,2012-11-19 05:35:00
11:55 PM,51.8,37.2,58,30.24,10.0,Calm,Calm,-,N/A,,Clear,0,2012-11-19 05:55:00